Погода в Туркестане

Погода в Туркестане : погода сейчас, прогноз погоды и архив. Всё, что Вы хотите узнать о погоде в Туркестане!

Хотите узнать прогноз погоды в Туркестане? Тогда Вам сюда: Погода в Туркестане

Поиск расширенной информации на нашем сайте:

Другие новости

Новости СМИ2

Главная страница сайта

Новости сайта

03.07.2017

Напоминаем, что на нашем специализированном сайте Метеоцентр.Азия вы можете получить высокодетализированные автоматические прогнозы погоды по пунктам России, СНГ и мира в авиационном формате (включающие направление и скорость ветра, видимость, явления погоды, количество и форму облачности, нижнюю и верхнюю границу облачности).


Погода в Туркестане - сегодня

Время (UTC), дата Ветер
(°,м/с) 
Видим.   Явления Облачность Т
(°С)
Тd
(°С)
f(%) Тe
(°С)
Pmin
(гПа)
dP
(гПа)
Po
(мм)
O2
(г/м3)
Тmin Tmax R s Состояние
почвы
21 19.02.18 280 (З) н/о    3/0 верхняя 
[Ci sp]
-1.6 -5.3 76 -3  1016.8  -1.7  743  302           
00 20.02.18 280 (З) н/о    3/0 верхняя 
[Ci sp]
-3.2 -3.9 95 -3  1015.7  -1.3  742  303           
06 20.02.18 270 (З) 10 км    9/0 средняя, верхняя 
[Ac lent|Ci sp]
+5.5 -3.3 53 +5  1011.3  -1.5  740  292  -3.9         
09 20.02.18 290 (З) 20000 м    10/3 600 м кучево-дожд., средняя 
[Cb cap|Ac As]
+6.3 -2.9 52 +4  1012.5  -1.3  741  292           
21 20.02.18 110 (В) н/о  слаб. ливневой дождь со снегом  10/10 600 м кучево-дожд. 
[Cb cap]
+0.2 +0.2 100 -2  1019.8  1.4  746  300           
03 21.02.18 160 (Ю) 10 км  {ливн. осадки}  10/10 600 м кучево-дожд. 
[Cb cap]
+0.3 +0.3 100 +1  1024.4  2.2  749  301        равномерный
мокрый или
старый снег
100% 
09 21.02.18 220 (ЮЗ) 10 км  слаб. ливневой дождь  10/10 600 м кучево-дожд. 
[Cb cap]
+5.2 +5.2 100 +3  1024.6  -0.5  749  295           
21 21.02.18 тихо ()   н/о    10/10 600 м кучево-дожд. 
[Cb cap]
+2.4 +2.4 100 +2  1025.9  -0.3  750  299           
00 22.02.18 090 (В) н/о    10/10 600 м кучево-дожд. 
[Cb cap]
+2.2 +2.2 100 +3  1025.3  -0.6  750  299           
03 22.02.18 090 (В) 4000 м  дымка{ливн. осадки}  10/10 600 м кучево-дожд. 
[Cb cap]
+1.8 +1.8 100 +3  1025.4  0.1  750  300      0.6     
09 22.02.18 340 (С) 10 км    10/8 600 м кучево-дожд., средняя 
[Cb cap|Ac As]
+6.3 +6.3 100 +6  1023.8  -1  749  294           
12 22.02.18 300 (СЗ) 10 км    6/6 600 м кучево-дожд. 
[Cb cap]
+6.8 +4.2 83 +7  1022.8  -0.8  748  293           
15 22.02.18 340 (С) н/о    3/0 средняя 
[Ac As]
+2.2 +2.2 100 +2  1022.7  -0.5  748  299    +7.4       
18 22.02.18 030 (СВ) н/о    ясно 
+1 +1 100 +2  1031.3  -1.5  747  300    +7.4       
21 22.02.18 тихо ()   н/о    ясно 
+0.9 +0.9 100 +1  1019.3  -2  745  299           
00 23.02.18 350 (С) н/о    ясно 
+0.2 +0.2 100 -1  1018.2  -1.1  744  300           
06 23.02.18 300 (СЗ) 10 км    10/0 верхняя 
[Cs]
+7.7 +4.5 80 +7  1015.8  -0.8  743  291  -0.8         
09 23.02.18 310 (СЗ) 10 км    9/0 средняя, верхняя 
[Ac lent|Ci sp]
+11.6 +5.3 65 +11  1013.6  -1.9  742  286           
12 23.02.18 300 (СЗ) 10 км    8/0 средняя, верхняя 
[Ac lent|Cc]
+10.7 +6.2 74 +10  1013.5  -0.2  742  287           
15 23.02.18 310 (СЗ) н/о    3/0 верхняя 
[Ci fib]
+4.7 +4.7 100 +3  1015.4  1.4  743  293    +12       
21 23.02.18 310 (СЗ) н/о  дымка  10/0 средняя 
[As op]
+0.3 +0.3 100 -2  1016.9  0.5  743  299           
09 24.02.18 330 (СЗ) 10 км  {туман}  10/0 средняя 
[Ac As]
+4.8 +4.8 100 +4  1018.1  -0.8  745  294           
12 24.02.18 260 (З) 10 км  {туман}  10/0 средняя 
[As op]
+5.6 +5.6 100 +5  1017.2  -0.7  744  293           
15 24.02.18 010 (С) н/о    10/0 средняя 
[As op]
+5.3 +5.3 100 +6  1017.8  0.5  744  293    +5.7       
18 24.02.18 260 (З) н/о    10/0 средняя 
[As op]
+4.9 +4.9 100 +6  1018.2  0.3  745  294    +5.7       
Время (UTC), дата Ветер
(°,м/с) 
Видим.   Явления Облачность Т
(°С)
Тd
(°С)
f(%) Тe
(°С)
Pmin
(гПа)
dP
(гПа)
Po
(мм)
O2
(г/м3)
Тmin Tmax R s Состояние
почвы

Для получения пояснительной информации подведите курсор к названию столбца.

ПОГОДА в Туркестане - архив

Всё, что Вы хотите узнать о погоде в Туркестане - удобно и подробно!

Выберите нужную дату (начиная с 1 января 2015* года) и нажмите кнопку "Найти".
Будут отображены архивные сводки погоды по пункту Туркестан, начиная с указанной даты.


Отображать данные в формате CSV (для использования в таблицах Excel)


Внимание! Наш архив погоды предназначен исключительно для личного некоммерческого использования в познавательных целях. Если Вам необходимы официальные справки о состоянии погоды (для производственных, юридических, коммерческих и т.п. целей), обращайтесь в органы Росгидромета.

*Примечание: данная дата относится к архиву по метеостанциям СССР (Россия, СНГ, Балтия).
Архив по метеостанциям Зарубежной Европы и Азии (кроме Китая) хранится 10 дней, по другим регионам земного шара (Китай, Африка, Америка, Австралия, Океания) - 1 день.

Туркестан - район местоположения метеостанции


Название, широта, долгота, высота метеостанции:
Туркестан 43.3°ш. 68.2°д. 207 м над ур. моря [Казахстан]

Дополнительная информация

В oтличие oт бoльшинства пoгoдных сайтoв мы публикуем пoдрoбную метеoинфoрмацию в детальнoм прoфессиoнальнoм фoрмате.

Характеристики температуры и влажнoсти вoздуха измеряются на высoте 2 м в тени вдали oт зданий и деревьев.
Скoрoсть ветра измеряется на высoте 10 м (на урoвне рoста челoвека скoрoсть ветра ниже в 1.5-2 раза). Если метеoстанция нахoдится в гoрoде или в лесу, тo скoрoсть ветра занижена на 2-4 м/с пo сравнению с oткрытым местoм. Скoрoсть ветра над акватoриями крупных рек и oзёр, а также на вершинах хoлмoв на 2-5 м/с выше, чем в oбычных услoвиях.
Атмoсфернoе давление в разных тoчках местнoсти мoжет значительнo oтличаться oт давления на метеoстанции, в зависимoсти oт услoвий рельефа (при пoдъёме на 10 м давление пoнижается примернo на 1 мм рт.ст.).